Wind_Speed
11 10 9 9 9 9 8 8 7 7 6 6 6 5 6 6 6 7 9 7 5 3 3 1 5 7 7 4 6 7 3 2 4 7 13 10 9 10 10 8 9 7 8 10 15
12 12 11 10 10 10 10 9 8 6 6 5 6 6 7 7 6 6 7 7 10 8 7 3 7 6 2 3 5 14 6 2 3 5 9 10 11 9 8 13 15 12 8 5 10
12 12 12 12 12 12 11 10 9 8 7 7 6 8 10 9 8 6 4 7 6 5 7 12 11 11 5 2 10 8 8 7 7 5 9 9 8 7 8 11 10 10 6 3 10
15 13 11 10 12 13 13 12 11 11 11 10 10 11 13 10 9 9 2 1 5 8 10 14 20 12 7 7 8 15 17 7 5 5 5 9 11 8 6 8 8 6 2 3 6
19 17 16 15 13 13 13 14 16 16 16 15 15 15 17 11 11 10 5 2 2 9 9 17 11 19 8 7 8 13 9 5 7 6 6 9 13 10 3 5 9 6 11 7 11
27 25 24 21 21 20 21 18 18 20 22 22 20 18 19 15 12 12 9 3 2 7 9 9 13 11 5 9 9 15 11 11 7 6 3 7 12 12 5 6 10 13 14 10 16
27 27 30 29 28 27 29 30 26 25 25 25 22 19 21 18 17 14 8 5 2 6 9 12 11 10 3 2 4 4 14 14 9 8 9 7 9 10 9 11 14 15 17 14 14
28 29 30 26 28 30 30 29 30 26 22 21 21 20 23 21 17 17 10 9 9 12 10 8 8 8 8 4 1 5 13 11 11 8 6 6 10 12 11 12 13 10 12 10 9
26 23 21 22 21 20 18 16 15 16 16 16 16 20 24 19 19 19 16 11 12 12 10 5 5 5 7 13 5 9 10 11 7 6 4 5 9 14 12 15 17 13 10 12 9
17 16 15 14 13 14 14 14 14 16 17 18 19 20 21 18 22 21 19 15 13 11 10 5 4 3 10 12 13 8 10 9 7 5 4 3 7 13 11 14 19 15 7 11 10
8 8 9 9 10 11 10 10 12 13 17 21 22 24 24 24 25 24 23 19 17 15 16 9 8 6 13 14 21 23 3 3 12 10 4 3 6 8 11 13 21 22 18 17 17
6 5 3 3 4 5 5 8 9 12 13 13 17 21 23 26 26 26 24 21 21 19 12 9 9 7 8 17 21 24 21 16 24 21 12 6 7 7 11 10 12 22 19 16 14
8 7 6 4 4 5 5 4 6 7 6 2 9 19 20 23 25 22 19 17 19 20 15 14 9 8 12 11 13 19 24 23 23 18 8 14 11 10 9 9 5 7 13 17 16
12 11 10 7 5 6 7 9 12 13 13 12 5 5 12 19 19 19 15 16 16 17 18 14 15 12 8 14 14 14 18 20 26 22 12 11 8 10 9 8 5 7 8 16 20
12 13 11 10 4 6 10 14 21 15 22 16 12 6 10 13 13 14 18 21 19 24 20 17 18 16 13 14 9 10 15 15 23 18 15 6 5 11 9 6 5 8 13 14 19
11 12 11 9 6 9 12 16 15 11 14 16 19 7 8 11 18 16 14 19 25 27 26 18 18 13 4 10 9 6 12 13 18 15 9 10 7 8 7 8 8 5 9 9 17
11 10 10 7 6 6 7 12 8 9 13 16 14 10 6 11 12 10 13 18 21 22 24 14 18 15 9 6 7 4 12 14 20 20 7 9 6 12 14 16 11 5 14 9 9
10 10 8 5 3 5 7 6 4 9 15 17 17 13 5 5 6 6 8 11 17 19 20 21 15 17 12 7 1 5 7 12 9 6 18 20 11 11 17 19 19 13 8 9 13
9 10 9 5 0 7 7 5 4 4 9 11 12 17 14 12 11 9 9 12 17 17 22 19 16 16 16 10 4 4 6 7 4 6 10 13 9 16 13 17 23 19 14 3 3
10 9 8 6 2 9 12 10 8 6 6 7 5 7 6 4 6 12 13 13 14 17 18 22 20 14 16 17 10 7 6 2 4 2 5 7 18 15 14 12 25 20 21 15 5
14 13 10 7 7 10 14 14 13 11 7 5 4 3 2 2 8 8 14 11 13 9 11 21 25 18 12 15 15 11 12 8 9 7 8 7 10 15 9 13 18 17 20 15 12
18 14 12 12 11 13 17 16 13 17 14 10 11 14 12 8 7 10 12 8 13 9 9 15 19 20 16 18 16 20 17 15 12 7 8 8 10 8 11 13 12 12 18 10 9
18 18 14 13 14 15 20 18 12 17 16 17 23 26 26 16 13 15 11 4 13 10 13 18 15 21 15 15 19 26 22 18 14 12 5 4 8 10 14 13 13 12 9 7 8
19 21 15 13 14 16 19 21 17 18 17 18 15 12 21 23 17 16 11 12 10 12 14 20 10 13 17 11 15 26 24 23 20 16 7 7 8 8 14 20 21 13 8 4 5
18 19 18 16 15 16 18 23 21 23 24 16 13 10 9 13 22 20 15 17 17 12 14 15 15 13 10 16 14 20 26 26 23 18 15 9 8 11 11 18 11 11 8 2 4
26 23 21 21 20 19 24 25 16 20 22 22 21 17 12 17 22 21 16 16 18 21 23 25 23 18 20 18 19 20 29 26 23 20 13 16 10 9 9 9 8 8 9 6 7
28 28 27 23 24 24 25 27 19 15 19 20 25 20 14 21 15 13 21 25 24 23 24 25 25 21 19 14 17 27 32 27 24 17 13 14 16 13 13 9 9 10 11 8 9
Wind_Direction
290 297 298 297 311 324 330 337 341 339 347 359 355 346 337 342 10 31 43 45 63 30 337 233 208 188 185 215 243 232 207 201 121 72 37 32 12 335 322 303 304 299 281 224 216
288 288 289 292 293 297 307 316 316 309 313 320 315 304 297 306 325 342 20 13 16 21 33 333 229 209 184 261 191 162 183 160 147 82 84 30 1 335 333 327 325 327 301 235 212
301 294 289 284 285 285 288 293 294 293 288 286 275 276 276 282 299 317 355 33 21 12 27 343 341 346 70 92 166 199 210 206 94 93 84 42 356 317 332 0 349 328 313 197 200
295 297 293 286 288 285 283 280 282 282 281 277 267 258 258 265 280 294 280 26 24 26 26 358 351 352 2 257 235 205 222 176 189 159 97 44 355 344 344 0 339 329 93 136 188
286 286 287 283 289 290 293 283 279 280 282 273 264 253 251 249 261 267 264 153 342 46 47 22 8 337 291 274 255 182 245 209 187 134 54 21 1 9 1 350 4 47 105 149 114
282 282 280 282 284 284 287 285 282 274 270 267 256 244 246 244 238 246 253 179 120 80 28 21 41 21 327 228 249 234 229 187 48 117 152 41 21 26 29 35 33 101 130 114 96
283 284 277 276 281 280 279 282 282 275 266 258 252 243 240 239 236 235 225 221 192 99 70 77 70 45 322 227 118 170 188 159 124 95 73 52 45 49 66 83 83 103 110 111 109
280 282 284 278 273 274 275 273 270 268 266 257 246 241 239 235 231 232 190 231 134 123 102 67 52 349 355 150 130 112 150 123 122 116 105 81 60 65 75 86 97 85 96 112 114
282 284 281 278 278 276 272 268 263 263 261 258 253 243 237 233 223 221 217 201 149 126 106 98 125 289 347 2 25 164 131 120 115 126 109 80 67 83 85 93 90 98 109 104 116
284 282 279 276 274 271 267 267 268 267 264 262 252 242 235 219 218 210 213 206 161 147 133 166 152 42 5 18 56 140 113 114 104 132 163 112 77 90 96 98 94 98 106 101 119
301 292 282 278 275 270 268 270 274 279 279 270 248 231 222 207 203 207 206 201 168 158 133 169 143 99 72 69 59 46 74 62 98 28 166 149 87 78 100 100 104 108 106 102 100
11 3 340 301 285 290 300 311 307 302 293 273 235 219 223 208 203 206 206 199 174 159 163 193 144 99 57 34 46 41 30 29 52 37 146 134 91 70 58 72 91 109 103 107 124
35 34 24 10 1 5 34 1 342 357 358 354 208 207 206 199 201 213 217 223 170 160 170 157 167 166 102 76 65 49 35 34 39 32 135 131 110 85 77 71 78 113 118 117 126
35 32 28 27 46 62 87 71 79 71 67 56 76 166 188 200 197 206 206 216 203 169 182 182 174 143 139 108 86 79 58 26 41 41 59 117 85 115 108 98 104 136 167 139 146
28 30 36 41 61 98 92 89 81 66 67 59 63 114 164 184 193 199 193 197 204 193 192 196 193 164 136 111 99 84 66 30 37 29 24 91 131 114 102 93 154 169 173 177 162
10 22 33 49 61 98 93 114 117 86 79 61 51 80 157 183 195 200 196 190 195 201 187 200 194 184 153 150 120 104 74 33 23 356 57 62 89 88 89 79 67 200 201 198 183
357 4 21 42 68 91 95 129 107 74 70 68 76 84 161 180 202 205 202 203 204 204 192 190 204 185 170 126 103 101 64 39 23 102 64 26 69 77 53 41 39 151 189 200 200
335 340 7 14 104 146 159 163 89 84 78 55 72 80 115 142 187 182 187 203 212 213 197 196 206 202 189 144 96 81 51 77 74 112 29 44 51 52 28 36 23 26 114 165 203
320 325 342 358 334 186 173 177 130 146 119 84 60 71 75 109 112 141 178 180 204 205 208 188 189 194 177 175 205 113 257 131 135 194 353 4 29 356 353 27 30 32 44 44 277
298 300 313 300 233 215 197 220 210 208 163 139 115 103 113 146 117 102 119 133 151 187 199 177 186 196 192 193 195 181 212 179 266 273 9 17 32 41 51 24 17 25 26 28 22
282 285 282 255 245 230 231 226 226 228 214 201 233 179 254 235 215 171 139 131 127 127 194 193 199 206 208 214 191 208 187 226 246 288 5 2 14 355 4 14 19 23 20 12 30
278 275 274 264 239 246 236 234 241 241 231 224 244 237 226 217 219 213 183 184 158 161 193 197 209 197 214 215 227 230 216 219 258 298 332 327 346 357 352 2 13 2 353 20 28
277 276 272 273 265 260 249 249 233 236 237 251 248 247 243 221 231 240 207 230 161 169 198 181 207 208 202 226 228 236 232 240 243 271 274 309 325 320 340 6 7 0 356 20 16
272 280 280 265 264 260 252 251 240 239 236 245 233 232 226 207 216 219 218 248 204 179 214 212 225 244 229 253 254 235 233 233 247 252 248 281 301 309 319 327 343 346 333 10 351
279 276 276 269 252 238 243 246 254 257 238 233 245 254 252 206 202 209 224 238 246 242 242 240 242 243 263 241 249 233 223 224 244 252 258 262 269 306 331 325 346 333 349 331 318
278 277 274 265 260 255 250 254 251 239 229 235 229 240 225 202 195 210 232 236 244 238 236 243 249 248 257 235 217 211 219 219 232 252 253 261 267 287 311 330 333 344 337 309 317
272 271 269 269 260 251 256 263 248 234 219 206 223 225 212 214 216 230 241 233 229 224 237 243 252 249 214 218 233 200 212 222 229 232 238 240 259 277 303 315 327 316 302 309 301
Height
5931 5931 5931 5930 5930 5930 5928 5927 5926 5925 5924 5923 5921 5918 5916 5915 5915 5913 5913 5912 5910 5908 5906 5907 5907 5906 5907 5907 5905 5906 5906 5904 5903 5903 5903 5901 5899 5897 5894 5891 5890 5891 5891 5891 5891
5929 5929 5929 5928 5928 5928 5927 5926 5926 5925 5923 5922 5920 5918 5916 5915 5915 5914 5915 5912 5911 5910 5910 5909 5909 5908 5908 5904 5903 5904 5904 5905 5904 5901 5901 5901 5900 5898 5893 5890 5888 5886 5886 5887 5888
5927 5926 5926 5926 5925 5925 5924 5924 5924 5923 5922 5921 5919 5917 5914 5915 5916 5915 5915 5914 5913 5912 5912 5912 5907 5907 5907 5905 5905 5905 5907 5905 5903 5904 5901 5900 5902 5897 5893 5891 5889 5887 5886 5886 5886
5924 5923 5923 5923 5922 5921 5921 5921 5921 5920 5920 5919 5917 5915 5912 5916 5917 5915 5915 5914 5914 5913 5913 5912 5911 5912 5907 5905 5903 5904 5904 5899 5904 5903 5901 5899 5899 5897 5895 5893 5891 5888 5886 5886 5885
5920 5919 5919 5919 5919 5918 5917 5917 5917 5917 5917 5916 5914 5911 5910 5915 5916 5914 5914 5915 5914 5914 5914 5913 5910 5909 5905 5903 5903 5905 5907 5906 5904 5902 5900 5900 5899 5896 5896 5895 5891 5888 5886 5886 5885
5915 5915 5915 5914 5914 5913 5913 5913 5913 5913 5913 5912 5910 5907 5906 5914 5914 5913 5912 5914 5913 5915 5915 5914 5909 5905 5902 5902 5904 5905 5905 5907 5905 5905 5903 5902 5900 5897 5897 5895 5892 5889 5888 5887 5886
5910 5910 5910 5909 5908 5908 5907 5907 5907 5908 5908 5907 5906 5904 5902 5910 5911 5911 5911 5912 5916 5916 5915 5914 5911 5910 5906 5904 5905 5903 5903 5904 5906 5904 5903 5904 5903 5899 5898 5896 5895 5893 5891 5891 5890
5905 5904 5903 5903 5902 5902 5901 5901 5901 5900 5900 5901 5902 5899 5899 5904 5910 5910 5912 5912 5916 5917 5915 5915 5912 5911 5907 5906 5906 5904 5902 5903 5904 5904 5904 5905 5904 5900 5899 5898 5895 5895 5895 5895 5894
5899 5898 5896 5897 5896 5895 5895 5895 5895 5895 5895 5896 5897 5895 5895 5900 5907 5908 5910 5912 5916 5915 5915 5915 5913 5911 5909 5906 5905 5905 5904 5902 5905 5905 5907 5907 5904 5901 5902 5899 5897 5898 5899 5900 5898
5893 5892 5892 5891 5891 5891 5891 5891 5891 5891 5890 5890 5891 5893 5893 5897 5901 5905 5908 5910 5913 5914 5914 5916 5915 5913 5912 5912 5908 5907 5906 5907 5907 5907 5907 5906 5905 5902 5904 5903 5900 5900 5901 5902 5904
5889 5889 5888 5888 5888 5888 5888 5887 5889 5888 5886 5885 5885 5887 5886 5888 5895 5900 5903 5908 5912 5914 5914 5915 5915 5914 5911 5911 5910 5909 5910 5906 5907 5905 5906 5908 5905 5904 5905 5905 5903 5902 5904 5903 5905
5888 5887 5886 5886 5885 5885 5886 5886 5885 5884 5881 5878 5877 5880 5883 5885 5893 5897 5901 5905 5911 5912 5912 5915 5914 5914 5912 5910 5908 5912 5913 5911 5908 5907 5908 5908 5907 5907 5908 5908 5909 5905 5905 5907 5907
5889 5887 5886 5885 5884 5885 5885 5883 5882 5880 5877 5875 5874 5875 5880 5886 5891 5897 5902 5902 5908 5911 5911 5913 5913 5912 5910 5913 5914 5915 5915 5913 5910 5909 5908 5909 5908 5908 5909 5909 5910 5911 5909 5908 5911
5890 5888 5886 5885 5886 5884 5883 5882 5882 5879 5878 5878 5876 5878 5883 5887 5892 5896 5902 5904 5907 5909 5909 5911 5913 5913 5914 5913 5915 5916 5916 5917 5911 5913 5912 5910 5911 5912 5910 5910 5912 5912 5914 5912 5913
5891 5889 5887 5886 5885 5884 5884 5883 5882 5882 5880 5880 5879 5880 5883 5888 5891 5894 5898 5901 5905 5908 5910 5912 5913 5913 5914 5914 5918 5918 5918 5917 5913 5914 5916 5916 5915 5914 5914 5913 5913 5915 5915 5915 5913
5891 5890 5889 5887 5887 5886 5884 5883 5883 5884 5880 5881 5880 5881 5883 5886 5889 5892 5896 5899 5902 5904 5908 5910 5913 5915 5916 5916 5918 5920 5918 5917 5915 5917 5918 5919 5920 5919 5917 5916 5914 5913 5914 5914 5914
5892 5891 5889 5888 5887 5887 5886 5885 5885 5884 5884 5882 5878 5879 5882 5885 5888 5892 5895 5898 5900 5904 5909 5911 5912 5914 5915 5916 5916 5919 5919 5917 5916 5915 5919 5918 5920 5919 5917 5914 5911 5910 5910 5909 5910
5892 5890 5891 5889 5888 5887 5886 5887 5885 5885 5885 5883 5881 5879 5883 5885 5889 5891 5894 5896 5899 5902 5907 5909 5912 5914 5914 5915 5917 5917 5918 5919 5921 5922 5920 5919 5920 5920 5918 5914 5912 5909 5908 5905 5906
5891 5890 5890 5889 5888 5887 5888 5887 5886 5885 5885 5886 5885 5883 5885 5887 5891 5891 5894 5896 5896 5901 5904 5907 5910 5911 5914 5915 5917 5916 5917 5920 5922 5922 5921 5920 5920 5918 5917 5917 5912 5908 5905 5904 5905
5889 5889 5889 5888 5887 5887 5887 5886 5885 5884 5885 5885 5886 5886 5888 5890 5891 5892 5893 5896 5896 5898 5901 5905 5908 5910 5912 5914 5915 5916 5919 5919 5920 5920 5919 5919 5918 5916 5917 5916 5910 5906 5906 5905 5902
5886 5887 5886 5886 5885 5885 5885 5885 5885 5885 5885 5885 5885 5885 5888 5890 5892 5892 5894 5895 5895 5896 5897 5902 5906 5910 5910 5912 5912 5915 5915 5918 5918 5919 5918 5918 5918 5918 5918 5916 5912 5909 5906 5903 5901
5883 5882 5882 5883 5884 5882 5882 5882 5884 5883 5885 5884 5884 5883 5885 5887 5890 5891 5891 5892 5892 5895 5896 5899 5904 5908 5910 5911 5911 5912 5914 5915 5916 5918 5918 5917 5919 5917 5917 5916 5914 5910 5908 5906 5904
5878 5879 5879 5879 5879 5879 5879 5880 5882 5882 5883 5883 5881 5881 5882 5884 5887 5889 5890 5890 5891 5893 5896 5898 5901 5904 5906 5908 5908 5908 5911 5913 5914 5915 5917 5917 5917 5915 5915 5914 5913 5912 5910 5906 5905
5874 5873 5876 5876 5875 5875 5874 5875 5878 5879 5881 5882 5881 5878 5878 5876 5883 5886 5887 5889 5891 5892 5895 5895 5897 5900 5903 5903 5905 5905 5907 5909 5910 5913 5914 5915 5914 5913 5913 5913 5912 5913 5910 5907 5906
5871 5870 5869 5871 5871 5870 5869 5870 5873 5874 5877 5881 5880 5879 5876 5875 5876 5883 5886 5887 5888 5890 5891 5893 5894 5896 5898 5900 5901 5901 5903 5905 5907 5910 5911 5913 5912 5912 5914 5913 5911 5912 5909 5905 5906
5866 5866 5865 5865 5864 5866 5864 5864 5869 5870 5872 5876 5877 5876 5875 5874 5876 5878 5882 5883 5885 5886 5887 5889 5891 5894 5894 5896 5897 5897 5899 5903 5905 5907 5908 5909 5910 5910 5912 5912 5912 5911 5907 5906 5906
5859 5859 5859 5860 5859 5860 5858 5858 5864 5865 5868 5867 5871 5874 5872 5873 5873 5873 5877 5879 5881 5882 5883 5885 5887 5889 5891 5891 5891 5892 5895 5899 5902 5903 5905 5906 5908 5908 5909 5909 5908 5907 5907 5906 5906